When you browse on this site, cookies collect data to enhance your experience and personalize the content and advertising you see.
Visit our Privacy Policy to learn more. By continuing to use the site, you agree to this use of cookies and data.

Hourly Weather Valencia

Today, 12 July, Sunday

Time Temperature Precipitation Wind Pressure Humidity
00:00 +24°C° 0.1 mm 1 mps 718 mmHg 96%
01:00 +23°C° 0 mm 1 mps 718 mmHg 96%
02:00 +23°C° 0 mm 1 mps 717 mmHg 96%
03:00 +23°C° 0 mm 1 mps 717 mmHg 96%
04:00 +21°C° 0 mm 0 mps 717 mmHg 96%
05:00 +22°C° 0 mm 0 mps 718 mmHg 95%
06:00 +23°C° 0 mm 0 mps 718 mmHg 93%
07:00 +24°C° 0 mm 0 mps 719 mmHg 91%
08:00 +26°C° 1.1 mm 1 mps 719 mmHg 89%
09:00 +27°C° 1.1 mm 1 mps 719 mmHg 86%
10:00 +28°C° 1.1 mm 1 mps 719 mmHg 83%
11:00 +28°C° 1.3 mm 1 mps 719 mmHg 81%
12:00 +29°C° 1.3 mm 1 mps 718 mmHg 79%
13:00 +29°C° 1.3 mm 2 mps 718 mmHg 77%
14:00 +29°C° 1.7 mm 1 mps 718 mmHg 80%
15:00 +28°C° 1.7 mm 1 mps 717 mmHg 82%
16:00 +28°C° 1.7 mm 1 mps 716 mmHg 84%
17:00 +27°C° 0.6 mm 1 mps 717 mmHg 87%
18:00 +26°C° 0.6 mm 1 mps 717 mmHg 91%
19:00 +22°C° 0.6 mm 0 mps 717 mmHg 94%
20:00 +24°C° 0 mm 1 mps 718 mmHg 94%
21:00 +24°C° 0 mm 1 mps 718 mmHg 94%
22:00 +23°C° 0 mm 1 mps 719 mmHg 94%
23:00 +21°C° 0 mm 0 mps 718 mmHg 94%

Tomorrow, 13 July, Monday

Time Temperature Precipitation Wind Pressure Humidity
00:00 +21°C° 0 mm 0 mps 718 mmHg 95%
01:00 +21°C° 0 mm 0 mps 718 mmHg 95%
02:00 +21°C° 0 mm 0 mps 718 mmHg 95%
03:00 +21°C° 0 mm 0 mps 718 mmHg 95%
04:00 +21°C° 0 mm 0 mps 718 mmHg 95%
05:00 +21°C° 0 mm 0 mps 718 mmHg 93%
06:00 +22°C° 0 mm 0 mps 719 mmHg 92%
07:00 +23°C° 0 mm 0 mps 719 mmHg 90%
08:00 +27°C° 0 mm 1 mps 719 mmHg 82%
09:00 +29°C° 0 mm 1 mps 719 mmHg 73%
10:00 +30°C° 0 mm 2 mps 719 mmHg 65%
11:00 +31°C° 0 mm 2 mps 719 mmHg 62%
12:00 +31°C° 0 mm 2 mps 719 mmHg 59%
13:00 +32°C° 0 mm 2 mps 718 mmHg 56%
14:00 +31°C° 0 mm 2 mps 718 mmHg 60%
15:00 +31°C° 0 mm 2 mps 717 mmHg 63%
16:00 +30°C° 0 mm 1 mps 717 mmHg 67%
17:00 +28°C° 0.2 mm 1 mps 717 mmHg 76%
18:00 +27°C° 0.2 mm 1 mps 717 mmHg 85%
19:00 +25°C° 0.2 mm 1 mps 718 mmHg 93%
20:00 +24°C° 0.5 mm 1 mps 718 mmHg 94%
21:00 +24°C° 0.5 mm 1 mps 718 mmHg 95%
22:00 +24°C° 0.5 mm 1 mps 719 mmHg 96%
23:00 +24°C° 0.3 mm 1 mps 719 mmHg 96%

Day after tomorrow, 14 July, Tuesday

Time Temperature Precipitation Wind Pressure Humidity
00:00 +24°C° 0.3 mm 1 mps 718 mmHg 96%
01:00 +21°C° 0.3 mm 0 mps 718 mmHg 96%
02:00 +21°C° 0 mm 0 mps 718 mmHg 96%
03:00 +21°C° 0 mm 0 mps 717 mmHg 96%
04:00 +21°C° 0 mm 0 mps 717 mmHg 95%
05:00 +22°C° 0 mm 0 mps 718 mmHg 94%
06:00 +23°C° 0 mm 0 mps 719 mmHg 92%
07:00 +23°C° 0 mm 0 mps 719 mmHg 91%
08:00 +24°C° 0.4 mm 0 mps 719 mmHg 88%
09:00 +27°C° 0.4 mm 1 mps 719 mmHg 85%
10:00 +28°C° 0.4 mm 1 mps 720 mmHg 81%
11:00 +28°C° 0.6 mm 1 mps 719 mmHg 79%
12:00 +29°C° 0.6 mm 2 mps 719 mmHg 78%
13:00 +29°C° 0.6 mm 2 mps 718 mmHg 76%
14:00 +29°C° 0.4 mm 1 mps 718 mmHg 76%
15:00 +29°C° 0.4 mm 1 mps 717 mmHg 77%
16:00 +29°C° 0.4 mm 1 mps 717 mmHg 78%
17:00 +27°C° 0.1 mm 1 mps 717 mmHg 84%
18:00 +26°C° 0.1 mm 1 mps 717 mmHg 89%
19:00 +25°C° 0.1 mm 1 mps 718 mmHg 95%
20:00 +24°C° 0 mm 1 mps 718 mmHg 96%
21:00 +24°C° 0 mm 1 mps 718 mmHg 96%
22:00 +24°C° 0 mm 1 mps 719 mmHg 96%
23:00 +24°C° 0 mm 1 mps 718 mmHg 96%

15 July, Wednesday

Time Temperature Precipitation Wind Pressure Humidity
00:00 +23°C° 0 mm 1 mps 718 mmHg 96%
01:00 +21°C° 0 mm 0 mps 718 mmHg 97%
02:00 +21°C° 0 mm 0 mps 717 mmHg 97%
03:00 +21°C° 0 mm 0 mps 717 mmHg 97%
04:00 +21°C° 0 mm 0 mps 717 mmHg 97%
05:00 +22°C° 0 mm 0 mps 718 mmHg 95%
06:00 +22°C° 0 mm 0 mps 718 mmHg 93%
07:00 +23°C° 0 mm 0 mps 718 mmHg 91%
08:00 +25°C° 0.1 mm 0 mps 719 mmHg 84%
09:00 +28°C° 0.1 mm 1 mps 719 mmHg 77%
10:00 +30°C° 0.1 mm 1 mps 719 mmHg 70%
11:00 +30°C° 0.5 mm 1 mps 718 mmHg 71%
12:00 +30°C° 0.5 mm 1 mps 718 mmHg 71%
13:00 +30°C° 0.5 mm 2 mps 717 mmHg 71%
14:00 +29°C° 0.4 mm 1 mps 717 mmHg 73%
15:00 +29°C° 0.4 mm 1 mps 716 mmHg 75%
16:00 +29°C° 0.4 mm 1 mps 716 mmHg 76%
17:00 +27°C° 0.2 mm 1 mps 716 mmHg 82%
18:00 +26°C° 0.2 mm 1 mps 716 mmHg 88%
19:00 +22°C° 0.2 mm 0 mps 717 mmHg 94%
20:00 +22°C° 0.1 mm 0 mps 717 mmHg 94%
21:00 +22°C° 0.1 mm 0 mps 717 mmHg 94%
22:00 +22°C° 0.1 mm 0 mps 718 mmHg 94%
23:00 +21°C° 0.2 mm 0 mps 717 mmHg 94%

16 July, Thursday

Time Temperature Precipitation Wind Pressure Humidity
00:00 +21°C° 0.2 mm 0 mps 717 mmHg 94%
01:00 +21°C° 0.2 mm 0 mps 717 mmHg 94%
02:00 +21°C° 0.1 mm 0 mps 717 mmHg 94%
03:00 +21°C° 0.1 mm 0 mps 717 mmHg 94%
04:00 +21°C° 0.1 mm 0 mps 717 mmHg 94%
05:00 +21°C° 0 mm 0 mps 717 mmHg 93%
06:00 +22°C° 0 mm 0 mps 718 mmHg 91%
07:00 +25°C° 0 mm 1 mps 718 mmHg 90%
08:00 +27°C° 0 mm 1 mps 718 mmHg 81%
09:00 +28°C° 0 mm 2 mps 718 mmHg 73%
10:00 +30°C° 0 mm 2 mps 719 mmHg 64%
11:00 +30°C° 0.2 mm 2 mps 718 mmHg 64%
12:00 +30°C° 0.2 mm 2 mps 718 mmHg 63%
13:00 +31°C° 0.2 mm 2 mps 717 mmHg 63%
14:00 +30°C° 0.5 mm 2 mps 717 mmHg 67%
15:00 +30°C° 0.5 mm 2 mps 716 mmHg 70%
16:00 +29°C° 0.5 mm 2 mps 716 mmHg 73%
17:00 +28°C° 0.7 mm 2 mps 716 mmHg 79%
18:00 +26°C° 0.7 mm 2 mps 717 mmHg 84%
19:00 +25°C° 0.7 mm 2 mps 717 mmHg 89%
20:00 +24°C° 1.2 mm 1 mps 717 mmHg 91%
21:00 +23°C° 1.2 mm 1 mps 718 mmHg 92%
22:00 +23°C° 1.2 mm 1 mps 718 mmHg 93%
23:00 +23°C° 0.2 mm 1 mps 718 mmHg 93%

17 July, Friday

Time Temperature Precipitation Wind Pressure Humidity
00:00 +23°C° 0.2 mm 1 mps 717 mmHg 93%
01:00 +23°C° 0.2 mm 1 mps 717 mmHg 93%
02:00 +23°C° 0.2 mm 1 mps 717 mmHg 93%
03:00 +23°C° 0.2 mm 1 mps 717 mmHg 93%
04:00 +23°C° 0.2 mm 1 mps 717 mmHg 92%
05:00 +24°C° 0 mm 1 mps 717 mmHg 91%
06:00 +24°C° 0 mm 1 mps 718 mmHg 90%
07:00 +25°C° 0 mm 1 mps 718 mmHg 88%
08:00 +26°C° 0.6 mm 1 mps 718 mmHg 86%
09:00 +27°C° 0.6 mm 2 mps 718 mmHg 84%
10:00 +28°C° 0.6 mm 2 mps 719 mmHg 82%
11:00 +28°C° 1.3 mm 2 mps 718 mmHg 82%
12:00 +28°C° 1.3 mm 2 mps 718 mmHg 82%
13:00 +28°C° 1.3 mm 2 mps 717 mmHg 81%
14:00 +28°C° 1.5 mm 2 mps 717 mmHg 83%
15:00 +28°C° 1.5 mm 1 mps 716 mmHg 85%
16:00 +27°C° 1.5 mm 1 mps 716 mmHg 87%
17:00 +26°C° 1.1 mm 1 mps 716 mmHg 89%
18:00 +25°C° 1.1 mm 1 mps 716 mmHg 90%
19:00 +24°C° 1.1 mm 1 mps 717 mmHg 92%
20:00 +24°C° 0 mm 1 mps 717 mmHg 92%
21:00 +22°C° 0 mm 0 mps 718 mmHg 91%
22:00 +22°C° 0 mm 0 mps 718 mmHg 91%
23:00 +21°C° 0 mm 0 mps 718 mmHg 92%
Show more